Location: Caltech
(34.1382°N, 118.1253°W)
Time: 20:06:44
(UTC-07:00)

Iridium 12 - Visible Passes

Search period start: 25 July 2014 00:00
Search period end: 04 August 2014 00:00
Orbit: 776 x 779 km, 86.4° (Epoch: 25 July)

Date Brightness Start Highest point End Pass type
(mag) Time Alt. Az. Time Alt. Az. Time Alt. Az.
25 Jul 6.7 21:41:52 10° NNW 21:46:45 42° W 21:51:37 10° SSW visible
26 Jul 5.6 21:08:07 10° N 21:13:20 83° W 21:18:31 10° S visible
27 Jul 5.8 20:34:44 10° N 20:39:48 50° E 20:44:49 10° SSE visible
27 Jul 8.2 22:17:11 10° NW 22:19:59 15° W 22:22:47 10° WSW visible
28 Jul 7.4 21:42:21 10° NNW 21:46:45 28° W 21:51:08 10° SW visible
29 Jul 6.2 21:08:19 10° NNW 21:13:24 55° W 21:18:27 10° SSW visible
30 Jul 5.5 20:34:42 10° N 20:39:56 76° E 20:45:07 10° S visible
31 Jul 8.1 21:43:06 10° NW 21:46:42 19° W 21:50:18 10° SW visible
01 Aug 7.0 21:08:40 10° NNW 21:13:25 37° W 21:18:08 10° SSW visible
02 Aug 5.8 20:34:49 10° N 20:40:01 73° W 20:45:11 10° S visible
03 Aug 8.4 21:44:25 10° NW 21:46:36 13° W 21:48:48 10° WSW visible
